CZ-6A DEB, 54450

Orbit data source: Space-Track

CZ-6A DEB, 54450 is space debris in SSO originally from a launch on Fri, 11 Nov 2022 UTC launched from the Taiyaun Space Center, China (TSC). Debris objects in space refer to the collection of defunct objects orbiting the Earth. Examples of debris include non-operational satellites, rocket bodies, and fragments generated from explosions, collisions, or faulty payload assembly.

Loading next visibility...
Identifier
54450, 2022-151GA
Orbit
SSO
Country
Flag of CNCN / PRC
Related business
Manufacturer
SAST
Mission
Spacecraft
Bus & Motor
Unknown
Mass
Unknown
Launch date (UTC)
2022-11-11 (4 years ago)
Launch vehicle
Unknown
Launch site
Taiyaun Space Center, China (TSC)
Object type
Payload
Rocket body
Debris
Shape & HBR
Unknown shape, 0.2 m
Radar Cross Section
Medium (>0.1 m² and <1 m²)

Expand to show TLE details & history
Last TLE update: 2 days ago

TLE from 2 days ago
0 CZ-6A DEB
1 54450U 22151GA  26171.38979362  .00000472  00000-0  13549-3 0  9991
2 54450  98.6626 229.0876 0145689 337.7454  21.7454 14.43890223189442
Epoch: 2026-06-20T09:21Z
TLE epoch observation values (Epoch: 2026-06-20T09:21:18.168Z)
Latitude
-0.00006°
Longitude
-179.8432°
Altitude
652.415 km
Speed
7.582 km/s
True Right ascension
15h 16m 21s
True Declination
0° 00' 00"
Sunlit
Object was in full shadow at epoch
Visualization orbit readout
Latitude
Unknown
Longitude
Unknown
Altitude
Unknown
Speed
Unknown
Apparent Right ascension
Unknown
Apparent Declination
Unknown
Sunlit
N/A
Visualization observer readout
Local Sidereal Time
21:33:59
Azimuth
Unknown
Elevation
Unknown
Doppler factor
Unknown
Orbital elements
Apogee altitude
846.542 km
Perigee altitude
639.053 km
Semi-major axis
7,120.935 km
Eccentricity
0.01457
Inclination
98.6626°
RAAN
229.0876°
Arg. of periapsis
337.7454°
True anomaly
22.37453°
Mean anomaly
21.7454°
Eccentric anomaly
22.05889°
Mean motion
3.61192 °/min
Orbital period
99.67 mins
BSTAR
0.00013549
Loading maneuver chart data...
Computing Atmospheric mass density...
Loading historical data...
Loading historical data...
Loading historical data...
Loading historical data...
Loading historical data...
Loading historical data...
Loading historical data...

Documentation

Showing up to 5 results
|